Weather History for Hagerstown, MD

Change the Weather History Date:

Monday, February 18, 2013

  Actual Average Record
Temperature  
Mean Temperature 28 °F -  
Max Temperature 39 °F 42 °F - (0)
Min Temperature 16 °F 26 °F - (0)
Degree Days  
Heating Degree Days 37    
Month to date heating degree days 595  
Moisture  
Dew Point 8 °F    
Average Humidity 42    
Maximum Humidity 56    
Minimum Humidity 27    
Precipitation  
Precipitation 0.00 in - - ()
Month to date precipitation 0.42  
Year to date precipitation 3.40  
Sea Level Pressure  
Sea Level Pressure 30.28 in    
Wind  
Wind Speed 6 mph (SW)    
Max Wind Speed 18 mph    
Max Gust Speed 24 mph    
Visibility 10 miles    
Events      
T = Trace of Precipitation, MM = Missing Value Source: NWS Daily Summary

Daily Weather History Graph

Daily Weather History Graph

Search for Another Location

Airport:

Trip Planner

Search our weather history database for the weather conditions in past years. The results will help you decide how hot, cold, wet, or windy it might be!

Date:

Astronomy

Feb. 18, 2013 Rise Set
Actual Time 6:59 AM EST 5:51 PM EST
Civil Twilight 6:31 AM EST 6:18 PM EST
Nautical Twilight 6:00 AM EST 6:49 PM EST
Astronomical Twilight 5:29 AM EST 7:21 PM EST
Moon 11:35 AM EST (2/18) 1:36 AM EST (2/18)
Length of Visible Light 11h 46m
Length of Day
10h 51m
First Quarter, 58% of the Moon is Illuminated
Feb 18
First Quarter
Feb 25
Full
Mar 4
Last Quarter
Mar 11
New
Mar 19
First Quarter

Hourly Weather History & Observations

Time (EST) Temp. Windchill Dew Point Humidity Pressure Visibility Wind Dir Wind Speed Gust Speed Precip Events Conditions
12:53 AM 19.9 °F 5.7 °F 5.0 °F 52% 30.27 in 10.0 mi NW 16.1 mph - N/A   Partly Cloudy
1:53 AM 18.0 °F 8.7 °F 5.0 °F 57% 30.27 in 10.0 mi WNW 6.9 mph - N/A   Clear
2:53 AM 18.0 °F 12.7 °F 3.9 °F 54% 30.29 in 10.0 mi NW 3.5 mph - N/A   Clear
3:53 AM 18.0 °F 6.9 °F 5.0 °F 57% 30.29 in 10.0 mi WNW 9.2 mph - N/A   Clear
4:53 AM 17.1 °F 5.8 °F 5.0 °F 59% 30.32 in 10.0 mi West 9.2 mph - N/A   Clear
5:53 AM 17.1 °F - 5.0 °F 59% 30.35 in 10.0 mi Calm Calm - N/A   Clear
6:53 AM 17.1 °F 7.6 °F 5.0 °F 59% 30.37 in 10.0 mi West 6.9 mph - N/A   Clear
7:53 AM 19.0 °F 13.9 °F 7.0 °F 59% 30.38 in 10.0 mi West 3.5 mph - N/A   Clear
8:53 AM 21.0 °F 14.6 °F 6.1 °F 53% 30.40 in 10.0 mi WSW 4.6 mph - N/A   Clear
9:53 AM 24.1 °F 17.0 °F 6.1 °F 46% 30.40 in 10.0 mi West 5.8 mph - N/A   Clear
10:53 AM 27.0 °F 20.5 °F 8.1 °F 45% 30.38 in 10.0 mi West 5.8 mph - N/A   Clear
11:53 AM 28.0 °F - 7.0 °F 41% 30.35 in 10.0 mi Calm Calm - N/A   Clear
12:53 PM 32.0 °F 27.5 °F 7.0 °F 35% 30.32 in 10.0 mi SSW 4.6 mph - N/A   Clear
1:53 PM 34.0 °F 29.8 °F 7.0 °F 32% 30.28 in 10.0 mi SSW 4.6 mph - N/A   Clear
2:53 PM 37.0 °F 32.4 °F 7.0 °F 29% 30.26 in 10.0 mi South 5.8 mph - N/A   Clear
3:53 PM 37.9 °F 32.7 °F 9.0 °F 30% 30.24 in 10.0 mi SSE 6.9 mph 18.4 mph N/A   Clear
4:53 PM 39.0 °F 35.7 °F 10.9 °F 32% 30.24 in 10.0 mi SSW 4.6 mph - N/A   Clear
5:53 PM 37.9 °F 33.5 °F 10.0 °F 32% 30.23 in 10.0 mi SE 5.8 mph - N/A   Clear
6:53 PM 36.0 °F 30.3 °F 12.0 °F 37% 30.23 in 10.0 mi SE 6.9 mph - N/A   Clear
8:53 PM 36.0 °F 29.0 °F 10.9 °F 36% 30.19 in 10.0 mi SSE 9.2 mph - N/A   Clear
9:53 PM 37.0 °F 29.3 °F 12.9 °F 37% 30.17 in 10.0 mi SSE 11.5 mph - N/A   Clear
10:53 PM 37.0 °F 31.0 °F 15.1 °F 41% 30.15 in 10.0 mi South 8.1 mph - N/A   Clear
11:53 PM 37.0 °F 31.6 °F 17.1 °F 44% 30.14 in 10.0 mi South 6.9 mph - N/A   Clear